Wind_Speed
76 71 69 64 56 52 50 47 44 44 44 41 32 31 34 35 31 30 30 30 29 30 29 30 33 34 35 32 32 31 31 30
83 81 76 70 67 63 53 49 43 49 45 45 38 40 41 40 38 35 34 34 33 34 33 34 36 37 38 36 35 34 33 33
92 85 79 76 74 68 61 56 50 52 50 55 43 44 45 44 42 40 40 41 39 39 38 38 40 41 40 39 38 38 37 35
90 88 89 88 82 78 73 59 53 51 52 62 49 46 47 48 45 47 46 45 43 42 41 43 43 44 42 41 40 41 40 37
98 97 97 92 85 80 74 68 61 58 57 60 63 55 52 50 49 48 46 48 46 45 45 46 45 45 45 45 43 43 43 41
98 96 94 93 90 87 83 77 67 58 62 62 67 65 61 56 53 51 50 48 47 48 48 46 46 47 48 49 49 48 48 47
93 100 102 98 97 93 91 81 78 68 64 64 64 73 73 66 55 51 51 53 52 52 51 49 49 50 52 54 53 52 53 54
85 95 104 103 99 97 94 90 85 77 70 69 68 74 73 71 61 58 55 59 57 56 54 54 54 53 54 57 58 57 58 61
74 85 99 107 103 98 95 93 89 80 71 75 75 76 75 73 69 62 60 61 62 60 60 58 58 58 58 61 64 62 63 66
67 80 92 91 99 101 99 96 93 86 84 78 79 80 81 78 72 67 66 66 65 65 65 64 62 62 65 66 67 67 69 71
67 71 78 85 96 103 103 98 94 89 85 82 82 84 81 81 77 73 71 70 69 69 68 68 68 68 69 69 69 70 71 74
63 65 68 80 85 95 103 100 94 92 89 85 87 86 82 87 83 80 76 75 75 73 72 72 73 74 74 73 73 73 73 73
66 63 68 68 80 88 99 97 96 94 92 92 89 86 91 89 88 83 81 79 80 78 77 77 78 79 78 76 75 75 73 71
68 64 64 65 70 81 88 93 96 95 93 92 91 88 89 90 90 87 85 85 84 83 82 81 82 81 80 78 78 74 71 70
66 62 57 61 69 72 80 81 90 96 94 93 93 92 89 87 87 87 87 88 88 87 86 84 83 81 79 77 72 71 71 70
73 62 56 56 61 64 66 70 77 88 93 93 93 92 90 87 84 85 84 86 87 84 83 81 80 78 77 74 71 71 73 72
66 64 52 51 54 56 60 64 70 78 88 92 92 91 88 86 83 84 84 83 82 82 81 80 78 77 76 73 72 74 75 78
62 58 44 42 43 45 49 60 66 70 77 82 87 88 86 85 85 85 83 82 82 82 82 81 79 79 78 76 74 77 79 80
48 41 49 37 35 35 39 47 56 67 72 77 82 85 84 84 86 84 83 81 80 79 81 82 83 82 83 80 78 78 78 80
Wind_Direction
236 233 236 244 238 240 237 232 230 240 238 245 234 242 241 244 250 255 258 261 263 265 269 273 277 281 284 290 296 302 308 313
233 234 235 237 239 235 236 238 235 239 242 246 239 236 241 246 247 250 255 259 262 265 270 272 276 280 285 290 295 302 305 309
230 234 236 234 239 242 238 236 234 234 236 244 240 240 241 244 248 251 253 256 259 263 269 273 276 279 283 289 293 297 300 307
228 230 231 233 231 233 236 235 237 232 239 250 247 245 244 246 246 250 254 257 260 264 267 270 273 276 281 285 289 294 297 303
224 227 230 233 232 234 235 235 235 237 235 243 251 248 248 247 250 254 256 260 263 266 267 269 272 276 281 286 287 288 290 298
224 225 228 231 233 234 234 233 233 233 232 236 249 254 252 250 249 253 259 261 264 265 267 271 274 279 283 284 285 288 292 297
223 224 225 228 230 230 231 231 232 227 229 228 234 247 251 251 253 256 259 261 262 266 268 271 274 277 280 283 286 289 291 294
223 224 226 226 228 230 231 232 231 229 226 226 228 240 245 252 253 254 257 262 265 267 270 272 275 277 280 282 284 288 291 292
228 227 227 226 226 230 232 231 233 230 228 227 228 233 241 244 247 249 253 258 263 266 268 271 273 275 278 282 284 288 290 292
235 230 229 228 228 228 230 232 233 230 229 228 229 232 236 241 244 246 249 253 256 261 265 268 271 275 278 281 283 287 291 294
238 237 230 227 228 229 229 229 231 232 233 233 232 233 238 243 244 245 247 250 253 256 261 265 268 271 275 278 281 284 287 291
232 241 240 230 229 231 230 227 230 231 232 232 233 235 237 241 243 245 246 249 252 255 259 263 266 268 271 274 279 283 287 291
234 239 242 238 234 231 231 228 228 229 231 232 232 234 238 241 244 245 248 251 255 257 259 261 265 269 272 277 281 284 288 291
234 235 240 244 242 234 234 231 228 229 230 233 235 233 236 242 246 248 250 252 255 257 259 262 265 270 275 278 281 284 287 287
237 240 238 242 242 240 233 234 229 229 230 232 235 236 236 238 244 248 251 254 256 259 262 265 269 272 274 277 279 282 283 286
236 240 240 242 245 244 240 236 234 230 231 232 235 236 238 239 242 246 251 254 257 260 264 266 269 271 273 276 279 282 283 284
236 240 244 245 241 239 239 236 232 231 231 232 234 237 238 241 242 246 249 253 256 259 263 265 267 269 272 275 278 281 283 283
236 239 233 227 229 234 238 239 237 233 231 233 235 238 239 241 242 245 248 253 256 259 262 264 266 268 271 275 277 279 280 284
233 226 210 213 222 230 241 248 245 238 231 234 235 236 238 241 243 247 249 250 254 257 262 264 265 268 271 274 277 280 282 283
Height
10876 10883 10888 10896 10907 10918 10922 10928 10932 10934 10937 10941 10950 10950 10950 10952 10955 10955 10956 10957 10958 10958 10959 10958 10957 10955 10954 10954 10953 10953 10952 10950
10857 10861 10874 10883 10889 10895 10910 10918 10926 10923 10928 10930 10938 10942 10942 10944 10946 10948 10949 10950 10952 10951 10951 10950 10949 10948 10946 10946 10946 10945 10944 10944
10829 10851 10865 10872 10875 10883 10894 10903 10911 10913 10918 10912 10926 10930 10933 10935 10937 10939 10941 10941 10944 10944 10944 10942 10941 10940 10939 10938 10938 10937 10937 10937
10823 10833 10835 10842 10857 10863 10870 10893 10902 10907 10909 10896 10913 10919 10921 10922 10926 10927 10930 10931 10934 10935 10935 10932 10932 10932 10932 10932 10932 10931 10930 10931
10794 10803 10813 10828 10847 10857 10866 10873 10885 10892 10898 10892 10890 10903 10908 10912 10915 10916 10919 10920 10923 10924 10925 10924 10923 10922 10922 10923 10924 10924 10923 10923
10777 10793 10803 10809 10826 10837 10846 10856 10872 10885 10886 10888 10883 10886 10893 10900 10905 10907 10908 10910 10913 10913 10914 10915 10914 10913 10912 10912 10912 10913 10912 10911
10752 10765 10771 10788 10799 10812 10822 10843 10847 10866 10872 10880 10882 10869 10872 10882 10893 10897 10898 10898 10900 10901 10902 10903 10903 10903 10903 10901 10901 10901 10900 10898
10732 10742 10750 10762 10780 10792 10808 10820 10832 10843 10858 10863 10865 10858 10864 10869 10878 10884 10886 10883 10884 10887 10889 10890 10890 10892 10892 10890 10888 10889 10886 10883
10718 10722 10729 10736 10760 10776 10794 10804 10815 10834 10849 10842 10848 10848 10848 10853 10860 10869 10873 10873 10873 10875 10876 10878 10878 10880 10879 10875 10871 10873 10871 10866
10696 10698 10708 10743 10746 10755 10768 10785 10799 10812 10817 10828 10832 10833 10830 10837 10846 10854 10858 10859 10862 10862 10862 10863 10865 10865 10862 10860 10858 10858 10854 10848
10678 10684 10697 10713 10719 10728 10742 10762 10779 10796 10807 10815 10817 10815 10824 10825 10831 10836 10841 10843 10846 10847 10849 10849 10851 10850 10848 10847 10847 10846 10843 10839
10668 10673 10683 10688 10705 10708 10719 10743 10762 10775 10785 10794 10795 10803 10815 10805 10813 10819 10825 10828 10828 10833 10835 10835 10835 10833 10834 10836 10836 10834 10831 10830
10651 10658 10662 10678 10681 10689 10697 10724 10739 10751 10764 10767 10776 10791 10787 10795 10797 10804 10809 10813 10814 10819 10821 10821 10819 10817 10819 10823 10823 10821 10820 10817
10636 10645 10652 10661 10663 10671 10685 10701 10720 10730 10742 10751 10759 10770 10772 10778 10782 10789 10794 10796 10799 10801 10804 10806 10806 10807 10808 10809 10807 10807 10805 10801
10625 10630 10642 10643 10648 10652 10662 10682 10699 10709 10721 10732 10738 10747 10756 10762 10769 10775 10779 10780 10782 10783 10786 10791 10792 10793 10794 10793 10794 10793 10790 10788
10607 10620 10627 10633 10637 10644 10652 10665 10677 10691 10701 10712 10721 10729 10740 10749 10754 10757 10762 10763 10765 10770 10773 10774 10775 10776 10775 10777 10779 10777 10774 10772
10600 10607 10618 10620 10623 10630 10636 10645 10655 10668 10682 10692 10702 10712 10722 10731 10740 10742 10743 10747 10750 10753 10755 10755 10757 10757 10758 10761 10764 10761 10755 10752
10588 10598 10611 10612 10617 10623 10627 10633 10641 10651 10664 10675 10685 10696 10707 10715 10720 10725 10729 10733 10735 10736 10738 10738 10740 10738 10742 10747 10747 10741 10738 10735
10578 10591 10601 10609 10611 10614 10618 10624 10631 10637 10646 10657 10667 10677 10688 10696 10701 10709 10712 10716 10717 10721 10722 10722 10720 10725 10728 10732 10730 10724 10719 10714